STARLINK L

Last updated on Jan. 16, 2020, 12:02 a.m. UTC

1 44924U 20001L   20015.58728761 -.00289483  00000-0 -15728-2 0  9999
2 44924  52.9985 354.8976 0000452 112.9493 247.1575 15.80026022  1351

Satellite is not in orbit.